Location: Malanoce
(44.2500°N, 7.4667°E)
Time: 13:10:34
(UTC+00:00)

Cosmos 1634 Rocket - Pass Details

Date: 17 November 2025
Orbit: 958 x 992 km, 82.9° (Epoch: 06 December)

Event Time Altitude Azimuth Distance (km) Brightness Sun altitude
Rises 19:00:14 0° 194° (SSW) 3,681 7.1 -31.9°
Reaches altitude 10° 19:02:46 10° 196° (SSW) 2,733 6.4 -32.4°
Enters shadow 19:07:40 54° 222° (SW) 1,180 4.5 -33.2°
Exits shadow 19:17:44 - 7° (N) 3,659 7.0 -35.0°
Sets 19:17:52 0° 7° (N) 3,708 7.1 -35.1°
